Das Wetter in  D-61279 Heinzenberg / Taunus





Wetter Minimum- & Maximum-Werte im Oktober 2010

Standort: Heinzenberg / Taunus - Höhe 297 m         8° 24' 1" Ost 50° 21' 51" Nord
(   3-stündige Aktualisierung    letzte Aktualisierung um 20:46 am 31.10.2010  )


Messgrösse

Minimum

Maximum

Durchschnitt

Temperatur West /
Luftfeuchte West
Anklicken für Monats-Diagramm

-3,4 °C

07:11
26.10.2010

34 %

17:27
12.10.2010

22,0 °C

17:46
03.10.2010

99 %

01:29
01.10.2010

Temp

8,4 °C

Feuchte

83 %

Temperatur Ost /
Luftfeuchte Ost
Anklicken für Monats-Diagramm

-3,3 °C

08:06
26.10.2010

--

--
--

21,5 °C

14:46
03.10.2010

--

--
--

8,3 °C

--

Luftdruck Anklicken für Monats-Diagramm

1001,1 hPa

18:06
04.10.2010

1032,0 hPa

09:41
26.10.2010

1015,6 hPa

Taupunkt

-4,4 °C

07:11
26.10.2010

15,1 °C

17:46
03.10.2010

5,3 °C

Windchill
( gefühlte Temperatur )

-8,7 °C

18:10
20.10.2010

20,9 °C

17:54
08.10.2010

6,4 °C

Windgeschwindigkeit /
Windrichtung
Anklicken für Monats-Diagramm

---

42,6 km/h / W-SW

14:29
30.10.2010

7,7 km/h
W-SW

Helligkeit /
Sonnenschein
Anklicken für Monats-Diagramm
Anklicken für Monats-Diagramm

Sonnenschein:

135:50 Stunden

Max: 9:30 Std am
09.10.2010

90 klux

13:47
05.10.2010

21,8 klux

Solarstrahlung Anklicken für Monats-Diagramm

---

618 W/m²

13:47
05.10.2010

164 W/m²

Regenmenge
    Oktober 2010
Anklicken für Monats-Diagramm

Insgesamt 28,3 l/m²

in 48:52 Stunden
an 17 Tagen

11,6 l/m²

15:26
16.10.2010

Gesamtmenge

28,3 l/m²

Regen-Tage
    Oktober 2010
Anklicken für Monats-Diagramm

>   0 mm/Tag

>   2 mm/Tag

>   5 mm/Tag

> 10 mm/Tag

> 20 mm/Tag

17 Tage     
3 Tage     
2 Tage     
  1 Tag     
0 Tage     

Eisige Tage Oktober 2010 / 2009

Tmin ≤ -10°C     

0 Tage

/

0 Tage

Eistage Oktober 2010 / 2009

Tmax <     0°C     

0 Tage

/

0 Tage

Frosttage Oktober 2010 / 2009

Tmin ≤     0°C     

7 Tage

/

5 Tage

Kalte Tage Oktober 2010 / 2009

Tmax <   10°C     

8 Tage

/

6 Tage

Warme Tage Oktober 2010 / 2009

Tmax ≥   20°C     

4 Tage

/

2 Tage

Sommertage Oktober 2010 / 2009

Tmax ≥   25°C     

0 Tage

/

0 Tage

Heisse Tage Oktober 2010 / 2009

Tmax ≥   30°C     

0 Tage

/

0 Tage


Monatsdiagramm Oktober 2010

Die Kurven zeigen den Durchschnittswert des jeweiligen Tages an


Wetter-Monatsübersicht Oktober 2010
Datum
  Temperatur
   Luftdruck
   Wind
  Regen
   Luftfeuchte
   Helligkeit

Sonnen-
schein

Ø
Temp.

Min.
Temp.

Max.
Temp.

Ø
Luftdruck

Min.
Luftdruck

Max.
Luftdruck

Ø-Geschw.
Haupt-Richtg.

Max.
Wind

Menge /
Dauer

Ø
Feuchte

Min.
Feuchte

Max.
Feuchte

Ø
Helligkeit

Max.
Helligkeit

1.
Oktober
11,8 °C8,1 °C
22:55
17,1 °C
16:49
1014,3 hPa1012,9 hPa
16:49
1015,4 hPa
11:29
3,9 km/h
W
16,1 km/h
23:55  
2,0 l/m²
3:20 Stunden
89 %62 %
16:49
99 %
01:29
26,1 klux76,2 klux
12:19
3:40 Std 
2.
Oktober
11,8 °C9,0 °C
00:35
13,7 °C
16:50
1013,5 hPa1012,6 hPa
10:00
1014,9 hPa
00:35
9,2 km/h
SO
23,5 km/h
11:25  
7,6 l/m²
6:35 Stunden
95 %93 %
14:20
98 %
08:45
10,1 klux34,6 klux
14:10
--- 
3.
Oktober
16,0 °C12,3 °C
07:51
22,0 °C
17:46
1009,6 hPa1005,8 hPa
22:51
1013,4 hPa
01:11
16,4 km/h
O-SO
33,4 km/h
16:01  
0,2 l/m²
5 Minuten
82 %64 %
16:46
96 %
02:26
34,3 klux72,4 klux
12:51
7:40 Std 
4.
Oktober
14,5 °C11,1 °C
08:51
20,8 °C
17:41
1004,6 hPa1001,1 hPa
18:06
1007,1 hPa
02:51
8,5 km/h
O-SO
24,4 km/h
04:31  
---
82 %61 %
17:41
94 %
23:52
30,9 klux67,6 klux
14:51
6:30 Std 
5.
Oktober
13,9 °C9,9 °C
06:22
19,5 °C
13:52
1007,2 hPa1004,2 hPa
00:02
1011,2 hPa
21:57
7,0 km/h
W-SW
25,7 km/h
11:22  
---
10 Minuten
89 %71 %
12:47
98 %
09:02
24,0 klux90,3 klux
13:47
3:40 Std 
6.
Oktober
15,5 °C13,0 °C
01:23
19,9 °C
15:53
1013,4 hPa1011,2 hPa
00:03
1017,4 hPa
23:59
8,6 km/h
O-SO
24,6 km/h
15:23  
---
84 %67 %
15:58
93 %
23:14
31,2 klux85,6 klux
12:33
5:41 Std 
7.
Oktober
13,3 °C10,0 °C
04:14
15,9 °C
12:54
1020,6 hPa1017,4 hPa
00:04
1022,5 hPa
11:59
4,2 km/h
O-SO
21,3 km/h
13:24  
---
91 %82 %
15:54
99 %
07:24
13,0 klux44,9 klux
10:44
15 Min 
8.
Oktober
14,5 °C10,1 °C
23:50
20,9 °C
17:44
1020,2 hPa1018,7 hPa
17:44
1021,8 hPa
04:24
8,1 km/h
O-SO
27,5 km/h
01:24  
---
82 %57 %
17:19
93 %
07:04
29,6 klux75,0 klux
13:29
6:54 Std 
9.
Oktober
11,5 °C6,0 °C
08:45
20,5 °C
17:45
1018,7 hPa1015,6 hPa
17:45
1021,5 hPa
08:45
5,7 km/h
O-SO
33,7 km/h
10:45  
---
74 %35 %
17:20
97 %
09:15
35,3 klux59,3 klux
13:05
9:30 Std 
10.
Oktober
9,8 °C2,3 °C
08:11
19,9 °C
17:26
1014,8 hPa1011,5 hPa
17:26
1017,5 hPa
02:36
3,9 km/h
SO
20,8 km/h
13:51  
---
69 %35 %
13:51
95 %
08:56
34,7 klux59,1 klux
12:56
9:25 Std 
11.
Oktober
8,4 °C1,9 °C
07:56
17,8 °C
17:26
1015,5 hPa1012,9 hPa
17:07
1017,6 hPa
23:57
4,2 km/h
NO
21,0 km/h
15:16  
---
68 %36 %
17:31
91 %
09:21
33,4 klux59,0 klux
12:26
9:25 Std 
12.
Oktober
6,3 °C-0,6 °C
08:22
15,8 °C
17:27
1017,2 hPa1014,1 hPa
17:47
1019,3 hPa
08:22
4,5 km/h
SO
18,8 km/h
15:22  
---
72 %34 %
17:27
94 %
09:22
33,8 klux58,1 klux
13:27
9:30 Std 
13.
Oktober
5,8 °C1,9 °C
23:49
11,9 °C
17:33
1017,0 hPa1015,6 hPa
17:33
1018,5 hPa
10:28
5,9 km/h
NO
19,7 km/h
11:58  
---
81 %64 %
14:18
91 %
02:08
24,7 klux59,8 klux
12:18
5:50 Std 
14.
Oktober
5,0 °C-1,4 °C
07:14
12,8 °C
15:54
1017,0 hPa1015,5 hPa
15:54
1018,9 hPa
11:09
2,5 km/h
W-NW
14,6 km/h
15:59  
---
86 %65 %
15:09
98 %
11:04
26,8 klux56,4 klux
13:34
6:15 Std 
15.
Oktober
8,8 °C7,4 °C
07:20
11,2 °C
14:05
1014,7 hPa1010,9 hPa
22:51
1017,2 hPa
01:45
3,8 km/h
W-SW
14,3 km/h
18:25  
2,0 l/m²
3:01 Stunden
88 %78 %
14:20
96 %
10:10
11,5 klux46,9 klux
12:40
10 Min 
16.
Oktober
7,0 °C4,1 °C
21:36
9,1 °C
14:11
1010,8 hPa1007,9 hPa
04:31
1016,6 hPa
23:07
8,8 km/h
W-SW
22,6 km/h
18:46  
11,6 l/m²
16:56 Stunden
96 %94 %
00:01
98 %
06:11
9,2 klux27,2 klux
10:11
5 Min 
17.
Oktober
5,0 °C2,1 °C
23:53
6,8 °C
16:37
1020,5 hPa1016,6 hPa
00:02
1023,1 hPa
23:53
5,2 km/h
NO
18,2 km/h
07:27  
0,3 l/m²
1:35 Stunden
95 %90 %
17:27
98 %
08:02
3,5 klux8,1 klux
16:07
--- 
18.
Oktober
3,4 °C-0,4 °C
03:48
6,4 °C
14:18
1022,2 hPa1018,7 hPa
23:09
1024,1 hPa
08:28
4,7 km/h
W-SW
19,6 km/h
16:08  
---
92 %82 %
14:18
99 %
04:13
9,73 klux25,50 klux
13:38
--- 
19.
Oktober
5,5 °C3,1 °C
00:34
9,2 °C
16:39
1009,9 hPa1005,6 hPa
16:39
1018,8 hPa
00:34
12,5 km/h
W-SW
33,4 km/h
11:29  
2,4 l/m²
5:25 Stunden
94 %88 %
03:09
98 %
14:14
9,6 klux39,3 klux
16:29
25 Min 
20.
Oktober
5,3 °C3,2 °C
21:35
7,6 °C
13:50
1010,4 hPa1005,0 hPa
00:40
1019,8 hPa
23:46
17,4 km/h
W
37,4 km/h
17:20  
0,9 l/m²
3:55 Stunden
93 %78 %
16:00
98 %
00:00
14,6 klux72,1 klux
12:20
1:40 Std 
21.
Oktober
4,7 °C2,2 °C
23:52
9,1 °C
15:41
1023,8 hPa1019,8 hPa
00:01
1025,6 hPa
12:51
16,4 km/h
W
36,7 km/h
12:46  
0,2 l/m²
45 Minuten
79 %53 %
15:46
94 %
03:31
28,1 klux62,0 klux
12:56
6:44 Std 
22.
Oktober
2,5 °C-1,8 °C
07:17
7,6 °C
14:42
1022,7 hPa1020,0 hPa
23:43
1025,4 hPa
01:17
2,9 km/h
W-SW
20,3 km/h
12:32  
---
82 %67 %
14:12
93 %
08:37
14,4 klux49,4 klux
10:52
55 Min 
23.
Oktober
3,0 °C-2,9 °C
08:58
7,8 °C
20:43
1012,6 hPa1004,7 hPa
21:23
1020,3 hPa
02:23
11,4 km/h
W-SW
35,2 km/h
12:28  
---
10 Minuten
85 %71 %
20:43
96 %
09:33
21,5 klux57,3 klux
14:33
4:20 Std 
24.
Oktober
7,2 °C2,0 °C
23:55
11,0 °C
17:09
1009,5 hPa1004,7 hPa
00:14
1015,8 hPa
23:55
19,0 km/h
W-SW
39,0 km/h
03:09  
0,3 l/m²
1:45 Stunden
77 %48 %
16:59
91 %
07:14
24,9 klux70,7 klux
13:04
5:35 Std 
25.
Oktober
2,7 °C-1,8 °C
07:50
10,2 °C
15:15
1022,5 hPa1015,8 hPa
00:00
1029,7 hPa
23:41
3,3 km/h
NW
24,3 km/h
15:05  
---
30 Minuten
84 %56 %
15:05
98 %
10:10
25,2 klux65,8 klux
14:15
6:30 Std 
26.
Oktober
2,5 °C-3,4 °C
07:11
10,1 °C
15:06
1030,0 hPa1028,7 hPa
00:11
1032,0 hPa
09:41
1,7 km/h
W
12,5 km/h
16:06  
---
80 %43 %
16:36
96 %
10:06
27,8 klux53,7 klux
13:46
7:20 Std 
27.
Oktober
7,3 °C3,8 °C
01:02
10,0 °C
14:22
1025,8 hPa1023,3 hPa
19:27
1029,1 hPa
01:02
9,7 km/h
W-SW
31,0 km/h
13:37  
---
1:00 Stunden
67 %55 %
13:32
79 %
01:57
13,3 klux46,8 klux
11:52
25 Min 
28.
Oktober
8,3 °C3,3 °C
23:54
11,8 °C
15:28
1021,8 hPa1020,1 hPa
07:32
1023,4 hPa
11:53
7,9 km/h
W-SW
30,5 km/h
10:43  
---
45 Minuten
73 %57 %
07:18
92 %
22:54
12,9 klux50,5 klux
13:33
2:51 Std 
29.
Oktober
7,4 °C1,2 °C
03:54
15,7 °C
15:49
1014,3 hPa1006,4 hPa
21:14
1022,9 hPa
00:14
4,8 km/h
SO
28,0 km/h
19:24  
---
15 Minuten
82 %44 %
15:34
98 %
10:14
23,8 klux51,6 klux
12:54
6:30 Std 
30.
Oktober
12,5 °C6,2 °C
00:04
15,0 °C
13:09
1005,2 hPa1004,1 hPa
04:24
1007,0 hPa
00:04
14,7 km/h
W-SW
42,6 km/h
14:29  
---
66 %49 %
12:44
91 %
00:39
14,9 klux58,8 klux
14:14
2:50 Std 
31.
Oktober
9,4 °C7,2 °C
02:20
14,7 °C
14:15
1004,0 hPa1001,8 hPa
14:15
1005,8 hPa
22:05
2,5 km/h
SO
17,0 km/h
13:10  
0,9 l/m²
2:40 Stunden
85 %63 %
15:25
96 %
07:30
22,6 klux47,9 klux
10:31
5:15 Std 



Oktober
2010

Temperatur

  

Luftdruck

  

Wind

  

Regen

  

Luftfeuchte

  

Helligkeit

Sonnen-
schein

Ø

Min

Max

Ø

Min

Max

Ø

Max

Max

Ø

Min

Max

Ø

Max

Max

8,4 °C

-3,4 °C

07:11 Uhr
26.10.2010

22,0 °C

17:46 Uhr
03.10.2010

1015,6 hPa

1001,1 hPa

18:06 Uhr
04.10.2010

1032,0 hPa

09:41 Uhr
26.10.2010

7,7 km/h

W-SW

42,6 km/h

14:29 Uhr
30.10.2010

11,6 l/m²

16:56 Stunden
16.10.2010

83 %

34 %

17:27 Uhr
12.10.2010

99 %

01:29 Uhr
01.10.2010

21,8 klux

90,3 klux

13:47 Uhr
05.10.2010

9:30 Std

am
09.10.2010

Gesamt

Gesamt

28,3 l/m²

17 Tage
48:52 h

135:50 Std


Wetter-Diagramme Oktober 2010     Heinzenberg / Taunus   
TemperaturLuftfeuchte
SolarstrahlungLuftdruck
HelligkeitSonnenschein
RegenmengeRegendauer
Wind-GeschwindigkeitWind-Richtung